General Aviation Weather

Text Reports

Enter one or more of the following location identifiers separated by a space:

Zip Code, Four-Character ICAO or Three-Character IATA airport codes.

METAR - Aviation Routine Weather Report
KCGE - Cambridge, Maryland
Updated at 5:59 AM GMT on October 26, 2014 (1:59 AM EDT):
METAR KCGE 260559Z AUTO 24003KT 10SM CLR 13/08 A2968 RMK AO1
TAF - Terminal Area Forecast
KCGE - Cambridge, Maryland
Updated at 5:59 AM GMT on October 26, 2014 (1:59 AM EDT):
No TAF is currently available for this location.
Decoded:
No decoded TAF is available.
PIREP - Pilot Weather Report
KCGE - Cambridge, Maryland
Updated at 5:59 AM GMT on October 26, 2014 (1:59 AM EDT):
No PIREP is currently available for this location.
AIRMET - Airmens Meteorological Information
KCGE - Cambridge, Maryland
Updated at 5:59 AM GMT on October 26, 2014 (1:59 AM EDT):
No AIRMET is currently available for this location.
SIGMET - Significant Meteorological Information
KCGE - Cambridge, Maryland
Updated at 5:59 AM GMT on October 26, 2014 (1:59 AM EDT):
No SIGMET is currently available for this location.
NOTAM - Notice to Airmen
KCGE - Cambridge, Maryland
Updated at 5:59 AM GMT on October 26, 2014 (1:59 AM EDT):
No NOTAM is currently available for this location.
Forecast Area
KCGE - Cambridge, Maryland
Updated at 5:59 AM GMT on October 26, 2014 (1:59 AM EDT):
No NOTAM is currently available for this location.
Aviation Weather Maps